timestamp,surface_pressure_avg,surface_temp_avg,battery_voltage,lat,long
2023-01-07 00:09:00+00:00,341.6411,3.6,12.57,47.84626,-54.09684
2023-01-07 00:19:00+00:00,338.4847,3.6,12.57,47.84626,-54.09684
2023-01-07 00:29:00+00:00,338.1063,3.6,12.57,47.84626,-54.09684
2023-01-07 00:39:00+00:00,333.3646,3.6,12.57,47.84626,-54.09684
2023-01-07 00:49:00+00:00,323.838,3.56,12.57,47.84626,-54.09684
2023-01-07 00:59:00+00:00,314.5914,3.51,12.57,47.84626,-54.09684
2023-01-07 01:09:00+00:00,318.533,3.5,12.57,47.84626,-54.09684
2023-01-07 01:19:00+00:00,315.6447,3.46,12.57,47.84626,-54.09684
2023-01-07 01:29:00+00:00,301.5947,3.05,12.57,47.84626,-54.09684
2023-01-07 01:39:00+00:00,305.3347,2.89,12.57,47.84626,-54.09684
2023-01-07 01:49:00+00:00,313.3962,2.8,12.57,47.84626,-54.09684
2023-01-07 01:59:00+00:00,305.1047,2.8,12.57,47.84626,-54.09684
2023-01-07 02:09:00+00:00,289.2197,2.79,12.57,47.84626,-54.09684
2023-01-07 02:19:00+00:00,295.6963,2.8,12.57,47.84626,-54.09684
2023-01-07 02:29:00+00:00,298.073,2.9,12.57,47.84626,-54.09684
2023-01-07 02:39:00+00:00,278.8231,2.8,12.57,47.84626,-54.09684
2023-01-07 02:49:00+00:00,266.6997,2.8,12.57,47.84626,-54.09684
2023-01-07 02:59:00+00:00,270.8881,2.8,12.57,47.84626,-54.09684
2023-01-07 03:09:00+00:00,263.6164,2.83,12.57,47.84626,-54.09684
2023-01-07 03:19:00+00:00,249.963,2.86,12.57,47.84626,-54.09684
2023-01-07 03:29:00+00:00,252.1331,2.9,12.57,47.84626,-54.09684
2023-01-07 03:39:00+00:00,253.1331,2.9,12.57,47.84626,-54.09684
2023-01-07 03:49:00+00:00,237.6731,2.7,12.57,47.84626,-54.09684
2023-01-07 03:59:00+00:00,228.4547,2.59,12.57,47.84626,-54.09684
2023-01-07 04:09:00+00:00,236.0581,2.7,12.57,47.84626,-54.09684
2023-01-07 04:19:00+00:00,226.8814,2.7,12.57,47.84626,-54.09684
2023-01-07 04:29:00+00:00,211.7697,2.5,12.57,47.84626,-54.09684
2023-01-07 04:39:00+00:00,212.7464,2.45,12.57,47.84626,-54.09684
2023-01-07 04:49:00+00:00,218.1748,2.57,12.57,47.84626,-54.09684
2023-01-07 04:59:00+00:00,209.0565,2.6,12.57,47.84626,-54.09684
2023-01-07 05:09:00+00:00,206.1398,2.5,12.57,47.84626,-54.09684
2023-01-07 05:19:00+00:00,218.5981,2.58,12.57,47.84626,-54.09684
2023-01-07 05:29:00+00:00,221.1398,2.6,12.57,47.84626,-54.09684
2023-01-07 05:39:00+00:00,217.3198,2.6,12.57,47.84626,-54.09684
2023-01-07 05:49:00+00:00,219.6431,2.6,12.57,47.84626,-54.09684
2023-01-07 05:59:00+00:00,230.1815,2.68,12.57,47.84626,-54.09684
2023-01-07 06:09:00+00:00,231.2947,2.8,12.57,47.84626,-54.09684
2023-01-07 06:19:00+00:00,225.4398,2.7,12.57,47.84626,-54.09684
2023-01-07 06:29:00+00:00,225.8681,2.75,12.57,47.84626,-54.09684
2023-01-07 06:39:00+00:00,230.938,3.09,12.57,47.84626,-54.09684
2023-01-07 06:49:00+00:00,226.8764,2.9,12.57,47.84626,-54.09684
2023-01-07 06:59:00+00:00,227.9831,2.7,12.57,47.84626,-54.09684
2023-01-07 07:09:00+00:00,241.2748,2.62,12.57,47.84626,-54.09684
2023-01-07 07:19:00+00:00,245.9864,2.66,12.57,47.84626,-54.09684
2023-01-07 07:29:00+00:00,246.4681,2.66,12.57,47.84626,-54.09684
2023-01-07 07:39:00+00:00,250.3581,2.6,12.57,47.84626,-54.09684
2023-01-07 07:49:00+00:00,254.5214,2.6,12.57,47.84626,-54.09684
2023-01-07 07:59:00+00:00,252.648,2.6,12.57,47.84626,-54.09684
2023-01-07 08:09:00+00:00,262.1564,2.53,12.57,47.84626,-54.09684
2023-01-07 08:19:00+00:00,273.7414,2.5,12.57,47.84626,-54.09684
2023-01-07 08:29:00+00:00,272.6364,2.3,12.57,47.84626,-54.09684
2023-01-07 08:39:00+00:00,267.7914,2.39,12.57,47.84626,-54.09684
2023-01-07 08:49:00+00:00,276.718,2.69,12.57,47.84626,-54.09684
2023-01-07 08:59:00+00:00,285.7764,2.97,12.57,47.84626,-54.09684
2023-01-07 09:09:00+00:00,286.058,2.6,12.57,47.84626,-54.09684
2023-01-07 09:19:00+00:00,296.5364,2.8,12.49,47.84626,-54.09684
2023-01-07 09:29:00+00:00,309.8896,3.19,12.49,47.84626,-54.09684
2023-01-07 09:39:00+00:00,309.8414,3.27,12.49,47.84626,-54.09684
2023-01-07 09:49:00+00:00,304.9413,3.36,12.49,47.84626,-54.09684
2023-01-07 09:59:00+00:00,317.2964,3.4,12.49,47.84626,-54.09684
2023-01-07 10:09:00+00:00,329.968,3.41,12.49,47.84626,-54.09684
2023-01-07 10:19:00+00:00,331.8463,3.4,12.57,47.84626,-54.09684
2023-01-07 10:29:00+00:00,334.5247,3.44,12.57,47.84626,-54.09684
2023-01-07 10:39:00+00:00,347.06300000000016,3.47,12.57,47.84626,-54.09684
2023-01-07 10:49:00+00:00,349.0962,3.4,12.57,47.84626,-54.09684
2023-01-07 10:59:00+00:00,350.1113,3.37,12.57,47.84626,-54.09684
2023-01-07 11:09:00+00:00,366.2629,3.4,12.57,47.84626,-54.09684
2023-01-07 11:19:00+00:00,376.5896,3.44,12.57,47.84626,-54.09684
2023-01-07 11:29:00+00:00,370.2279,3.17,12.57,47.84626,-54.09684
2023-01-07 11:39:00+00:00,373.0714,3.33,12.57,47.84626,-54.09684
2023-01-07 11:49:00+00:00,384.4481,3.4,12.57,47.84626,-54.09684
2023-01-07 11:59:00+00:00,380.9346,3.4,12.57,47.84626,-54.09684
2023-01-07 12:09:00+00:00,376.1163,3.48,12.57,47.84626,-54.09684
2023-01-07 12:19:00+00:00,386.5997,3.5,12.57,47.84626,-54.09684
2023-01-07 12:29:00+00:00,383.6279,3.4,12.57,47.84626,-54.09684
2023-01-07 12:39:00+00:00,371.0646,3.0,12.57,47.84626,-54.09684
2023-01-07 12:49:00+00:00,372.6513,3.0,12.57,47.84626,-54.09684
2023-01-07 12:59:00+00:00,372.7664,3.2,12.57,47.84626,-54.09684
2023-01-07 13:09:00+00:00,358.0413,3.0,12.57,47.84626,-54.09684
2023-01-07 13:19:00+00:00,358.9896,3.03,12.57,47.84626,-54.09684
2023-01-07 13:29:00+00:00,366.0712,3.2,12.57,47.84626,-54.09684
2023-01-07 13:39:00+00:00,354.3013,3.1,12.57,47.84626,-54.09684
2023-01-07 13:49:00+00:00,338.6431,3.09,12.57,47.84626,-54.09684
2023-01-07 13:59:00+00:00,345.9846,3.11,12.57,47.84626,-54.09684
2023-01-07 14:09:00+00:00,351.4696,3.3,12.57,47.84626,-54.09684
2023-01-07 14:19:00+00:00,334.0996,3.2,12.57,47.84626,-54.09684
2023-01-07 14:29:00+00:00,326.2163,3.2,12.57,47.84626,-54.09684
2023-01-07 14:39:00+00:00,331.843,3.2,12.57,47.84626,-54.09684
2023-01-07 14:49:00+00:00,325.3896,3.2,12.57,47.84626,-54.09684
2023-01-07 14:59:00+00:00,314.2531,3.2,12.57,47.84626,-54.09684
2023-01-07 15:09:00+00:00,310.883,3.2,12.57,47.84626,-54.09684
2023-01-07 15:19:00+00:00,304.0179,3.23,12.65,47.84626,-54.09684
2023-01-07 15:29:00+00:00,291.5164,3.2,12.65,47.84626,-54.09684
2023-01-07 15:39:00+00:00,284.3914,3.2,12.65,47.84626,-54.09684
2023-01-07 15:49:00+00:00,277.1913,3.25,12.65,47.84626,-54.09684
2023-01-07 15:59:00+00:00,264.8081,3.2,12.65,47.84626,-54.09684
2023-01-07 16:09:00+00:00,260.0098,3.2,12.65,47.84626,-54.09684
2023-01-07 16:19:00+00:00,256.3931,3.2,12.65,47.84626,-54.09684
2023-01-07 16:29:00+00:00,246.5565,3.2,12.65,47.84626,-54.09684
2023-01-07 16:39:00+00:00,233.6297,3.2,12.65,47.84626,-54.09684
2023-01-07 16:49:00+00:00,229.4664,3.2,12.65,47.84626,-54.09684
2023-01-07 16:59:00+00:00,224.3681,3.2,12.65,47.84626,-54.09684
2023-01-07 17:09:00+00:00,212.5914,3.1,12.65,47.84626,-54.09684
2023-01-07 17:19:00+00:00,211.2032,3.0,12.73,47.84626,-54.09684
2023-01-07 17:29:00+00:00,221.4065,3.0,12.73,47.84626,-54.09684
2023-01-07 17:39:00+00:00,214.9164,2.9,12.73,47.84626,-54.09684
2023-01-07 17:49:00+00:00,203.5398,2.83,12.73,47.84626,-54.09684
2023-01-07 17:59:00+00:00,208.3381,2.86,12.73,47.84626,-54.09684
2023-01-07 18:09:00+00:00,215.7415,2.87,12.73,47.84626,-54.09684
2023-01-07 18:19:00+00:00,210.4964,2.87,12.73,47.84626,-54.09684
2023-01-07 18:29:00+00:00,206.2682,2.88,12.73,47.84626,-54.09684
2023-01-07 18:39:00+00:00,210.8498,2.9,12.73,47.84626,-54.09684
2023-01-07 18:49:00+00:00,212.5598,2.9,12.73,47.84626,-54.09684
2023-01-07 18:59:00+00:00,209.8897,2.9,12.73,47.84626,-54.09684
2023-01-07 19:09:00+00:00,210.7898,3.0,12.73,47.84626,-54.09684
2023-01-07 19:19:00+00:00,215.0764,3.08,12.65,47.84626,-54.09684
2023-01-07 19:29:00+00:00,218.4499,3.19,12.65,47.84626,-54.09684
2023-01-07 19:39:00+00:00,221.1098,3.19,12.65,47.84626,-54.09684
2023-01-07 19:49:00+00:00,223.8114,3.3,12.65,47.84626,-54.09684
2023-01-07 19:59:00+00:00,226.7081,3.44,12.65,47.84626,-54.09684
2023-01-07 20:09:00+00:00,222.9198,3.5,12.65,47.84626,-54.09684
2023-01-07 20:19:00+00:00,223.1598,3.43,12.57,47.84626,-54.09684
2023-01-07 20:29:00+00:00,231.8331,3.53,12.57,47.84626,-54.09684
2023-01-07 20:39:00+00:00,239.2281,3.6,12.57,47.84626,-54.09684
2023-01-07 20:49:00+00:00,236.8548,3.6,12.57,47.84626,-54.09684
2023-01-07 20:59:00+00:00,240.9648,3.6,12.57,47.84626,-54.09684
2023-01-07 21:09:00+00:00,249.4264,3.6,12.57,47.84626,-54.09684
2023-01-07 21:19:00+00:00,256.7614,3.63,12.57,47.84626,-54.09684
2023-01-07 21:29:00+00:00,263.2448,3.67,12.57,47.84626,-54.09684
2023-01-07 21:39:00+00:00,272.9014,3.69,12.57,47.84626,-54.09684
2023-01-07 21:49:00+00:00,280.0447,3.69,12.57,47.84626,-54.09684
2023-01-07 21:59:00+00:00,287.6697,3.7,12.57,47.84626,-54.09684
2023-01-07 22:09:00+00:00,294.1647,3.7,12.57,47.84626,-54.09684
2023-01-07 22:19:00+00:00,301.4497,3.6,12.57,47.84626,-54.09684
2023-01-07 22:29:00+00:00,308.1114,3.7,12.57,47.84626,-54.09684
2023-01-07 22:39:00+00:00,314.983,3.8,12.57,47.84626,-54.09684
2023-01-07 22:49:00+00:00,319.238,3.83,12.57,47.84626,-54.09684
2023-01-07 22:59:00+00:00,323.7029,3.83,12.57,47.84626,-54.09684
2023-01-07 23:09:00+00:00,327.5564,3.8,12.57,47.84626,-54.09684
2023-01-07 23:19:00+00:00,333.2814,3.79,12.57,47.84626,-54.09684
2023-01-07 23:29:00+00:00,339.2646,3.8,12.57,47.84626,-54.09684
2023-01-07 23:39:00+00:00,334.5829,3.79,12.57,47.84626,-54.09684
2023-01-07 23:49:00+00:00,333.903,3.7,12.57,47.84626,-54.09684
2023-01-07 23:59:00+00:00,337.3163,3.7,12.57,47.84626,-54.09684
